When you browse on this site, cookies collect data to enhance your experience and personalize the content and advertising you see.
Visit our Privacy Policy to learn more. By continuing to use the site, you agree to this use of cookies and data.
  • In United Kingdom
  • List of Countries
  • For 7 days
  • Water Temperature
  • Weather Map
  • Weather Widgets
  • user-avatar
    Login

    Hourly Weather Bugojno

    Today, 19 October, Saturday

    Time Temperature Precipitation Wind Pressure Humidity
    00:00 +12°C° 0 mm 1 mps 712 mmHg 86%
    01:00 +12°C° 0 mm 1 mps 712 mmHg 88%
    02:00 +12°C° 0 mm 1 mps 712 mmHg 88%
    03:00 +12°C° 0 mm 1 mps 712 mmHg 89%
    04:00 +12°C° 0 mm 1 mps 712 mmHg 90%
    05:00 +12°C° 0 mm 1 mps 712 mmHg 89%
    06:00 +12°C° 0 mm 1 mps 712 mmHg 88%
    07:00 +13°C° 0 mm 1 mps 712 mmHg 87%
    08:00 +15°C° 0 mm 1 mps 712 mmHg 76%
    09:00 +18°C° 0 mm 1 mps 713 mmHg 64%
    10:00 +20°C° 0 mm 2 mps 713 mmHg 52%
    11:00 +20°C° 0 mm 2 mps 713 mmHg 50%
    12:00 +21°C° 0 mm 2 mps 713 mmHg 47%
    13:00 +23°C° 0 mm 2 mps 713 mmHg 44%
    14:00 +21°C° 0 mm 2 mps 712 mmHg 50%
    15:00 +20°C° 0 mm 2 mps 712 mmHg 55%
    16:00 +20°C° 0 mm 1 mps 712 mmHg 60%
    17:00 +18°C° 0 mm 1 mps 712 mmHg 66%
    18:00 +15°C° 0 mm 1 mps 712 mmHg 71%
    19:00 +13°C° 0 mm 1 mps 712 mmHg 77%
    20:00 +13°C° 0 mm 2 mps 712 mmHg 79%
    21:00 +13°C° 0 mm 2 mps 712 mmHg 82%
    22:00 +13°C° 0 mm 2 mps 712 mmHg 84%
    23:00 +12°C° 0 mm 2 mps 712 mmHg 84%

    Tomorrow, 20 October, Sunday

    Time Temperature Precipitation Wind Pressure Humidity
    00:00 +12°C° 0 mm 2 mps 713 mmHg 85%
    01:00 +12°C° 0 mm 2 mps 713 mmHg 86%
    02:00 +12°C° 0 mm 2 mps 713 mmHg 86%
    03:00 +12°C° 0 mm 2 mps 712 mmHg 86%
    04:00 +12°C° 0 mm 2 mps 712 mmHg 85%
    05:00 +12°C° 0 mm 2 mps 713 mmHg 85%
    06:00 +12°C° 0 mm 2 mps 713 mmHg 84%
    07:00 +12°C° 0 mm 2 mps 713 mmHg 84%
    08:00 +15°C° 0 mm 2 mps 713 mmHg 74%
    09:00 +18°C° 0 mm 2 mps 714 mmHg 65%
    10:00 +20°C° 0 mm 2 mps 714 mmHg 55%
    11:00 +21°C° 0 mm 2 mps 714 mmHg 53%
    12:00 +23°C° 0 mm 2 mps 714 mmHg 51%
    13:00 +24°C° 0 mm 2 mps 714 mmHg 48%
    14:00 +23°C° 0 mm 2 mps 714 mmHg 54%
    15:00 +22°C° 0 mm 1 mps 714 mmHg 59%
    16:00 +21°C° 0 mm 1 mps 714 mmHg 65%
    17:00 +19°C° 0 mm 1 mps 714 mmHg 71%
    18:00 +16°C° 0 mm 1 mps 714 mmHg 78%
    19:00 +14°C° 0 mm 1 mps 714 mmHg 84%
    20:00 +14°C° 0 mm 1 mps 714 mmHg 83%
    21:00 +14°C° 0 mm 1 mps 714 mmHg 83%
    22:00 +13°C° 0 mm 2 mps 714 mmHg 82%
    23:00 +13°C° 0 mm 1 mps 714 mmHg 80%

    Day after tomorrow, 21 October, Monday

    Time Temperature Precipitation Wind Pressure Humidity
    00:00 +13°C° 0 mm 1 mps 714 mmHg 78%
    01:00 +13°C° 0 mm 1 mps 714 mmHg 75%
    02:00 +13°C° 0 mm 1 mps 714 mmHg 74%
    03:00 +13°C° 0 mm 1 mps 714 mmHg 73%
    04:00 +13°C° 0 mm 1 mps 714 mmHg 72%
    05:00 +13°C° 0 mm 1 mps 714 mmHg 70%
    06:00 +13°C° 0 mm 1 mps 714 mmHg 68%
    07:00 +14°C° 0 mm 1 mps 714 mmHg 66%
    08:00 +16°C° 0 mm 1 mps 715 mmHg 58%
    09:00 +20°C° 0 mm 1 mps 715 mmHg 51%
    10:00 +23°C° 0 mm 1 mps 716 mmHg 43%
    11:00 +24°C° 0 mm 1 mps 716 mmHg 41%
    12:00 +25°C° 0 mm 1 mps 716 mmHg 39%
    13:00 +26°C° 0 mm 1 mps 716 mmHg 36%
    14:00 +23°C° 0 mm 0 mps 716 mmHg 43%
    15:00 +22°C° 0 mm 0 mps 715 mmHg 49%
    16:00 +20°C° 0 mm 0 mps 715 mmHg 56%
    17:00 +19°C° 0 mm 0 mps 715 mmHg 59%
    18:00 +17°C° 0 mm 0 mps 715 mmHg 63%
    19:00 +15°C° 0 mm 0 mps 715 mmHg 67%
    20:00 +15°C° 0 mm 0 mps 715 mmHg 67%
    21:00 +14°C° 0 mm 0 mps 715 mmHg 67%
    22:00 +14°C° 0 mm 0 mps 715 mmHg 67%
    23:00 +14°C° 0 mm 0 mps 715 mmHg 66%

    22 October, Tuesday

    Time Temperature Precipitation Wind Pressure Humidity
    00:00 +14°C° 0 mm 0 mps 715 mmHg 65%
    01:00 +14°C° 0 mm 0 mps 715 mmHg 65%
    02:00 +13°C° 0 mm 0 mps 714 mmHg 63%
    03:00 +13°C° 0 mm 0 mps 714 mmHg 61%
    04:00 +13°C° 0 mm 0 mps 714 mmHg 60%
    05:00 +13°C° 0 mm 0 mps 714 mmHg 59%
    06:00 +14°C° 0 mm 0 mps 714 mmHg 58%
    07:00 +14°C° 0 mm 0 mps 714 mmHg 58%
    08:00 +17°C° 0 mm 0 mps 715 mmHg 52%
    09:00 +19°C° 0 mm 0 mps 715 mmHg 46%
    10:00 +22°C° 0 mm 0 mps 716 mmHg 40%
    11:00 +25°C° 0 mm 1 mps 716 mmHg 38%
    12:00 +26°C° 0 mm 1 mps 716 mmHg 36%
    13:00 +27°C° 0 mm 1 mps 716 mmHg 34%
    14:00 +25°C° 0 mm 1 mps 715 mmHg 40%
    15:00 +23°C° 0 mm 1 mps 715 mmHg 47%
    16:00 +22°C° 0 mm 1 mps 714 mmHg 54%
    17:00 +18°C° 0 mm 0 mps 714 mmHg 57%
    18:00 +17°C° 0 mm 0 mps 714 mmHg 60%
    19:00 +15°C° 0 mm 0 mps 714 mmHg 62%
    20:00 +15°C° 0 mm 0 mps 714 mmHg 62%
    21:00 +14°C° 0 mm 0 mps 714 mmHg 63%
    22:00 +14°C° 0 mm 0 mps 714 mmHg 63%
    23:00 +14°C° 0 mm 0 mps 714 mmHg 62%

    23 October, Wednesday

    Time Temperature Precipitation Wind Pressure Humidity
    00:00 +15°C° 0 mm 1 mps 714 mmHg 61%
    01:00 +15°C° 0 mm 1 mps 714 mmHg 60%
    02:00 +15°C° 0 mm 1 mps 713 mmHg 59%
    03:00 +15°C° 0 mm 1 mps 713 mmHg 58%
    04:00 +14°C° 0 mm 1 mps 713 mmHg 57%
    05:00 +15°C° 0 mm 1 mps 713 mmHg 57%
    06:00 +15°C° 0 mm 1 mps 713 mmHg 57%
    07:00 +15°C° 0 mm 1 mps 713 mmHg 56%
    08:00 +19°C° 0 mm 1 mps 713 mmHg 51%
    09:00 +21°C° 0 mm 1 mps 714 mmHg 46%
    10:00 +22°C° 0 mm 0 mps 714 mmHg 41%
    11:00 +23°C° 0 mm 0 mps 714 mmHg 39%
    12:00 +24°C° 0 mm 0 mps 714 mmHg 37%
    13:00 +27°C° 0 mm 1 mps 714 mmHg 35%
    14:00 +23°C° 0 mm 0 mps 713 mmHg 42%
    15:00 +22°C° 0 mm 0 mps 713 mmHg 48%
    16:00 +20°C° 0 mm 0 mps 713 mmHg 55%
    17:00 +21°C° 0 mm 1 mps 712 mmHg 57%
    18:00 +19°C° 0 mm 1 mps 712 mmHg 60%
    19:00 +18°C° 0 mm 1 mps 712 mmHg 62%
    20:00 +16°C° 0 mm 1 mps 712 mmHg 62%
    21:00 +16°C° 0 mm 1 mps 712 mmHg 63%
    22:00 +15°C° 0 mm 1 mps 712 mmHg 63%
    23:00 +15°C° 0 mm 1 mps 712 mmHg 61%

    24 October, Thursday

    Time Temperature Precipitation Wind Pressure Humidity
    00:00 +15°C° 0 mm 1 mps 712 mmHg 60%
    01:00 +15°C° 0 mm 1 mps 712 mmHg 58%
    02:00 +14°C° 0 mm 1 mps 712 mmHg 57%
    03:00 +14°C° 0 mm 1 mps 712 mmHg 55%
    04:00 +14°C° 0 mm 1 mps 711 mmHg 54%
    05:00 +14°C° 0 mm 1 mps 711 mmHg 54%
    06:00 +14°C° 0 mm 1 mps 711 mmHg 54%
    07:00 +14°C° 0 mm 1 mps 711 mmHg 54%
    08:00 +18°C° 0 mm 1 mps 712 mmHg 49%
    09:00 +21°C° 0 mm 1 mps 712 mmHg 43%
    10:00 +24°C° 0 mm 1 mps 712 mmHg 38%
    11:00 +24°C° 0 mm 1 mps 712 mmHg 36%
    12:00 +25°C° 0 mm 1 mps 712 mmHg 34%
    13:00 +26°C° 0 mm 1 mps 712 mmHg 32%
    14:00 +25°C° 0 mm 1 mps 712 mmHg 38%
    15:00 +23°C° 0 mm 1 mps 711 mmHg 45%
    16:00 +22°C° 0 mm 1 mps 711 mmHg 51%
    17:00 +20°C° 0 mm 1 mps 711 mmHg 53%
    18:00 +18°C° 0 mm 1 mps 711 mmHg 55%
    19:00 +15°C° 0 mm 1 mps 711 mmHg 58%
    20:00 +15°C° 0 mm 1 mps 711 mmHg 57%
    21:00 +15°C° 0 mm 1 mps 711 mmHg 57%
    22:00 +14°C° 0 mm 1 mps 711 mmHg 57%
    23:00 +14°C° 0 mm 1 mps 711 mmHg 57%
    Show more